GUG101 MGGT-SEGU

Flight info

Callsign GUG101
Flight time 2h 55m
Altitude 39000
Route MGGT OBRA2B OBRAS DCT NOROS DCT SETRI UL207 LIXAS DCT KIKIS DCT ASDEL ASDEL2 SEGU
Aircraft A20N/M-SDE2E3FGHIRWXY/LB1

Departure

Time 2026-05-07 22:50
Airport La Aurora International Airport (MGGT)

Arrival

Time 2026-05-08 01:46
Airport José Joaquín de Olmedo International Airport (SEGU)
Time Latitude Longitude Altitude Speed Heading
2026-05-07 22:29 14.59009 -90.52851 4968 ft 0 kts 287°
2026-05-07 22:38 14.59009 -90.52848 4968 ft 3 kts 287°
2026-05-07 22:38 14.59003 -90.52830 4966 ft 3 kts 287°
2026-05-07 22:38 14.58997 -90.52811 4966 ft 3 kts 287°
2026-05-07 22:39 14.58991 -90.52794 4964 ft 2 kts 291°
2026-05-07 22:39 14.58985 -90.52777 4964 ft 3 kts 270°
2026-05-07 22:39 14.58990 -90.52759 4963 ft 3 kts 233°
2026-05-07 22:39 14.58999 -90.52750 4965 ft 0 kts 191°
2026-05-07 22:41 14.58994 -90.52751 4965 ft 3 kts 192°
2026-05-07 22:41 14.58966 -90.52759 4964 ft 9 kts 193°
2026-05-07 22:41 14.58881 -90.52781 4965 ft 16 kts 180°
2026-05-07 22:42 14.58783 -90.52699 4965 ft 22 kts 95°
2026-05-07 22:42 14.58901 -90.52624 4969 ft 20 kts 21°
2026-05-07 22:42 14.59045 -90.52587 4976 ft 25 kts 17°
2026-05-07 22:42 14.59232 -90.52528 4983 ft 31 kts 17°
2026-05-07 22:43 14.59454 -90.52455 4992 ft 36 kts 17°
2026-05-07 22:43 14.59569 -90.52415 4995 ft 0 kts 30°
2026-05-07 22:48 14.59571 -90.52414 4995 ft 1 kts 31°
2026-05-07 22:48 14.59584 -90.52395 4993 ft 5 kts 69°
2026-05-07 22:48 14.59566 -90.52355 4991 ft 8 kts 169°
2026-05-07 22:48 14.59536 -90.52361 4990 ft 0 kts 197°
2026-05-07 22:49 14.59455 -90.52386 4991 ft 37 kts 197°
2026-05-07 22:49 14.59024 -90.52525 4976 ft 92 kts 197°
2026-05-07 22:50 14.58239 -90.52778 4953 ft 143 kts 197°
2026-05-07 22:50 14.57317 -90.53070 5159 ft 151 kts 195°
2026-05-07 22:50 14.56357 -90.53372 5636 ft 153 kts 196°
2026-05-07 22:50 14.55318 -90.53705 6074 ft 161 kts 197°
2026-05-07 22:51 14.54208 -90.54066 6530 ft 165 kts 198°
2026-05-07 22:51 14.53118 -90.54421 6993 ft 174 kts 196°
2026-05-07 22:51 14.51851 -90.54824 7177 ft 203 kts 195°
2026-05-07 22:51 14.50423 -90.55159 7489 ft 220 kts 186°
2026-05-07 22:52 14.48875 -90.55254 8088 ft 223 kts 176°
2026-05-07 22:52 14.47330 -90.55055 8680 ft 228 kts 165°
2026-05-07 22:52 14.45814 -90.54540 9330 ft 229 kts 154°
2026-05-07 22:52 14.44413 -90.53728 9964 ft 230 kts 141°
2026-05-07 22:53 14.43215 -90.52678 10539 ft 230 kts 133°
2026-05-07 22:53 14.42117 -90.51456 10904 ft 233 kts 129°
2026-05-07 22:53 14.41044 -90.50190 10974 ft 233 kts 129°
2026-05-07 22:53 14.39987 -90.48932 10989 ft 235 kts 129°
2026-05-07 22:54 14.38902 -90.47645 11098 ft 238 kts 129°
2026-05-07 22:54 14.37804 -90.46348 11641 ft 239 kts 129°
2026-05-07 22:54 14.36730 -90.45085 12392 ft 235 kts 129°
2026-05-07 22:54 14.35648 -90.43812 13064 ft 235 kts 129°
2026-05-07 22:55 14.34551 -90.42521 13582 ft 243 kts 129°
2026-05-07 22:55 14.33439 -90.41213 14117 ft 245 kts 129°
2026-05-07 22:55 14.32303 -90.39878 14681 ft 246 kts 129°
2026-05-07 22:55 14.31185 -90.38568 15316 ft 244 kts 128°
2026-05-07 22:56 14.30057 -90.37243 15814 ft 248 kts 128°
2026-05-07 22:56 14.28904 -90.35887 16288 ft 253 kts 129°
2026-05-07 22:56 14.27731 -90.34507 16788 ft 257 kts 129°
2026-05-07 22:56 14.26558 -90.33130 17343 ft 258 kts 130°
2026-05-07 22:57 14.25353 -90.31716 17854 ft 262 kts 129°
2026-05-07 22:57 14.24153 -90.30309 18422 ft 263 kts 129°
2026-05-07 22:57 14.22950 -90.28898 18957 ft 262 kts 129°
2026-05-07 22:57 14.21738 -90.27476 19397 ft 266 kts 130°
2026-05-07 22:58 14.20509 -90.26034 19718 ft 273 kts 130°
2026-05-07 22:58 14.19254 -90.24562 20255 ft 272 kts 129°
2026-05-07 22:58 14.17997 -90.23089 20774 ft 273 kts 130°
2026-05-07 22:58 14.16744 -90.21619 21153 ft 277 kts 130°
2026-05-07 22:59 14.15459 -90.20114 21618 ft 279 kts 129°
2026-05-07 22:59 14.14167 -90.18600 22129 ft 280 kts 129°
2026-05-07 22:59 14.12881 -90.17093 22582 ft 283 kts 129°
2026-05-07 22:59 14.11586 -90.15576 23007 ft 286 kts 129°
2026-05-07 23:00 14.10263 -90.14027 23449 ft 288 kts 129°
2026-05-07 23:00 14.08922 -90.12457 23868 ft 290 kts 129°
2026-05-07 23:00 14.07599 -90.10907 24233 ft 293 kts 130°
2026-05-07 23:00 14.06237 -90.09312 24576 ft 295 kts 130°
2026-05-07 23:01 14.04876 -90.07721 24953 ft 297 kts 130°
2026-05-07 23:01 14.03505 -90.06116 25317 ft 300 kts 130°
2026-05-07 23:01 14.02120 -90.04496 25694 ft 302 kts 130°
2026-05-07 23:01 14.00733 -90.02874 26041 ft 305 kts 130°
2026-05-07 23:02 13.99340 -90.01245 26374 ft 307 kts 130°
2026-05-07 23:02 13.97910 -89.99574 26720 ft 310 kts 130°
2026-05-07 23:02 13.96493 -89.97918 27050 ft 312 kts 130°
2026-05-07 23:02 13.95040 -89.96224 27377 ft 314 kts 130°
2026-05-07 23:03 13.93583 -89.94529 27698 ft 316 kts 130°
2026-05-07 23:03 13.92135 -89.92847 27989 ft 318 kts 130°
2026-05-07 23:03 13.90665 -89.91139 28304 ft 320 kts 130°
2026-05-07 23:03 13.89180 -89.89415 28603 ft 322 kts 130°
2026-05-07 23:04 13.87698 -89.87694 28892 ft 324 kts 130°
2026-05-07 23:04 13.86206 -89.85963 29180 ft 327 kts 131°
2026-05-07 23:04 13.84681 -89.84193 29468 ft 329 kts 130°
2026-05-07 23:04 13.83169 -89.82438 29735 ft 332 kts 130°
2026-05-07 23:05 13.81626 -89.80647 30026 ft 334 kts 130°
2026-05-07 23:05 13.80329 -89.79141 30243 ft 336 kts 130°
2026-05-07 23:05 13.78761 -89.77322 30457 ft 339 kts 130°
2026-05-07 23:05 13.77201 -89.75512 30625 ft 342 kts 130°
2026-05-07 23:06 13.75610 -89.73666 30868 ft 344 kts 131°
2026-05-07 23:06 13.74010 -89.71810 31115 ft 346 kts 131°
2026-05-07 23:06 13.72422 -89.69970 31305 ft 349 kts 131°
2026-05-07 23:06 13.70801 -89.68091 31549 ft 350 kts 131°
2026-05-07 23:07 13.69181 -89.66214 31795 ft 352 kts 131°
2026-05-07 23:07 13.65903 -89.62417 32083 ft 360 kts 131°
2026-05-07 23:07 13.64224 -89.60475 32379 ft 359 kts 130°
2026-05-07 23:08 13.62582 -89.58575 32599 ft 359 kts 130°
2026-05-07 23:08 13.60904 -89.56633 32721 ft 364 kts 131°
2026-05-07 23:08 13.59222 -89.54686 32813 ft 368 kts 131°
2026-05-07 23:08 13.57514 -89.52711 33020 ft 370 kts 131°
2026-05-07 23:09 13.55810 -89.50739 33135 ft 374 kts 131°
2026-05-07 23:09 13.54061 -89.48717 33313 ft 376 kts 131°
2026-05-07 23:09 13.52332 -89.46719 33482 ft 379 kts 131°
2026-05-07 23:09 13.50570 -89.44684 33657 ft 381 kts 131°
2026-05-07 23:10 13.48795 -89.42634 33844 ft 382 kts 131°
2026-05-07 23:10 13.45223 -89.38509 33946 ft 391 kts 131°
2026-05-07 23:10 13.43403 -89.36409 34119 ft 392 kts 131°
2026-05-07 23:11 13.41599 -89.34325 34293 ft 393 kts 131°
2026-05-07 23:11 13.39773 -89.32219 34441 ft 394 kts 131°
2026-05-07 23:11 13.37946 -89.30112 34590 ft 396 kts 132°
2026-05-07 23:11 13.36114 -89.27998 34733 ft 397 kts 132°
2026-05-07 23:12 13.34264 -89.25865 34831 ft 399 kts 132°
2026-05-07 23:12 13.32437 -89.23759 34977 ft 400 kts 132°
2026-05-07 23:12 13.30568 -89.21606 35186 ft 399 kts 132°
2026-05-07 23:12 13.28728 -89.19487 35346 ft 400 kts 132°
2026-05-07 23:13 13.26888 -89.17367 35441 ft 402 kts 132°
2026-05-07 23:13 13.25003 -89.15196 35549 ft 404 kts 132°
2026-05-07 23:13 13.23134 -89.13045 35676 ft 405 kts 132°
2026-05-07 23:13 13.21247 -89.10873 35793 ft 407 kts 132°
2026-05-07 23:14 13.19385 -89.08730 35891 ft 409 kts 133°
2026-05-07 23:14 13.17471 -89.06528 36008 ft 410 kts 133°
2026-05-07 23:14 13.15561 -89.04331 36105 ft 412 kts 132°
2026-05-07 23:14 13.13653 -89.02137 36254 ft 412 kts 132°
2026-05-07 23:15 13.11766 -88.99968 36359 ft 414 kts 132°
2026-05-07 23:15 13.07892 -88.95516 36514 ft 418 kts 133°
2026-05-07 23:15 13.05950 -88.93286 36633 ft 419 kts 133°
2026-05-07 23:16 13.04005 -88.91053 36795 ft 419 kts 133°
2026-05-07 23:16 13.02075 -88.88837 36921 ft 420 kts 133°
2026-05-07 23:16 13.00114 -88.86585 36991 ft 422 kts 133°
2026-05-07 23:17 12.96177 -88.82068 37019 ft 429 kts 133°
2026-05-07 23:17 12.94204 -88.79805 37199 ft 428 kts 133°
2026-05-07 23:17 12.92202 -88.77509 37337 ft 428 kts 133°
2026-05-07 23:18 12.88231 -88.72957 37481 ft 432 kts 133°
2026-05-07 23:18 12.86228 -88.70663 37596 ft 433 kts 133°
2026-05-07 23:18 12.84230 -88.68374 37693 ft 434 kts 133°
2026-05-07 23:19 12.80187 -88.63745 37883 ft 436 kts 133°
2026-05-07 23:19 12.75582 -88.59738 38070 ft 434 kts 150°
2026-05-07 23:19 12.72953 -88.58191 38192 ft 434 kts 152°
2026-05-07 23:20 12.70311 -88.56755 38298 ft 435 kts 154°
2026-05-07 23:20 12.64898 -88.53971 38466 ft 437 kts 155°
2026-05-07 23:21 12.59451 -88.51207 38616 ft 438 kts 154°
2026-05-07 23:21 12.53964 -88.48398 38773 ft 440 kts 154°
2026-05-07 23:22 12.48498 -88.45582 38844 ft 442 kts 154°
2026-05-07 23:22 12.43013 -88.42752 38848 ft 441 kts 154°
2026-05-07 23:23 12.37552 -88.39937 38848 ft 440 kts 154°
2026-05-07 23:23 12.32066 -88.37111 38851 ft 439 kts 154°
2026-05-07 23:24 12.26622 -88.34308 38852 ft 439 kts 154°
2026-05-07 23:24 12.21197 -88.31517 38847 ft 439 kts 154°
2026-05-07 23:25 12.15737 -88.28709 38852 ft 439 kts 154°
2026-05-07 23:25 12.10239 -88.25883 38850 ft 443 kts 154°
2026-05-07 23:26 12.04703 -88.23039 38848 ft 449 kts 154°
2026-05-07 23:26 11.99099 -88.20161 38850 ft 455 kts 154°
2026-05-07 23:27 11.90505 -88.15750 38850 ft 464 kts 154°
2026-05-07 23:27 11.84743 -88.12793 38854 ft 464 kts 154°
2026-05-07 23:28 11.78992 -88.09844 38854 ft 464 kts 154°
2026-05-07 23:28 11.73217 -88.06883 38858 ft 466 kts 154°
2026-05-07 23:29 11.68362 -88.04396 38856 ft 468 kts 154°
2026-05-07 23:29 11.62554 -88.01423 38854 ft 469 kts 154°
2026-05-07 23:30 11.56706 -87.98430 38855 ft 470 kts 154°
2026-05-07 23:30 11.50860 -87.95440 38856 ft 470 kts 154°
2026-05-07 23:31 11.45012 -87.92449 38857 ft 470 kts 154°
2026-05-07 23:31 11.39176 -87.89467 38856 ft 470 kts 154°
2026-05-07 23:32 11.33338 -87.86484 38856 ft 470 kts 154°
2026-05-07 23:32 11.27449 -87.83477 38856 ft 470 kts 155°
2026-05-07 23:33 11.21615 -87.80499 38856 ft 469 kts 155°
2026-05-07 23:33 11.15773 -87.77519 38856 ft 469 kts 155°
2026-05-07 23:34 11.09946 -87.74548 38856 ft 469 kts 155°
2026-05-07 23:34 11.04128 -87.71582 38856 ft 469 kts 155°
2026-05-07 23:35 10.98233 -87.68579 38855 ft 473 kts 155°
2026-05-07 23:35 10.92342 -87.65580 38853 ft 475 kts 155°
2026-05-07 23:36 10.86455 -87.62583 38854 ft 475 kts 155°
2026-05-07 23:36 10.80518 -87.59562 38857 ft 475 kts 155°
2026-05-07 23:37 10.74638 -87.56571 38856 ft 475 kts 155°
2026-05-07 23:37 10.68722 -87.53564 38857 ft 475 kts 155°
2026-05-07 23:38 10.62794 -87.50552 38856 ft 475 kts 155°
2026-05-07 23:38 10.56889 -87.47553 38855 ft 475 kts 155°
2026-05-07 23:39 10.51010 -87.44569 38854 ft 470 kts 154°
2026-05-07 23:39 10.45200 -87.41620 38857 ft 466 kts 154°
2026-05-07 23:40 10.39375 -87.38665 38859 ft 466 kts 154°
2026-05-07 23:40 10.33586 -87.35730 38860 ft 467 kts 154°
2026-05-07 23:41 10.27758 -87.32777 38859 ft 466 kts 154°
2026-05-07 23:41 10.21980 -87.29849 38862 ft 467 kts 154°
2026-05-07 23:42 10.16148 -87.26896 38862 ft 467 kts 154°
2026-05-07 23:42 10.10320 -87.23946 38868 ft 466 kts 154°
2026-05-07 23:43 10.04532 -87.21017 38868 ft 466 kts 154°
2026-05-07 23:43 9.98708 -87.18072 38868 ft 467 kts 154°
2026-05-07 23:44 9.92930 -87.15150 38867 ft 467 kts 154°
2026-05-07 23:44 9.87118 -87.12213 38868 ft 466 kts 154°
2026-05-07 23:45 9.81315 -87.09281 38868 ft 466 kts 153°
2026-05-07 23:45 9.75499 -87.06345 38868 ft 466 kts 153°
2026-05-07 23:46 9.69692 -87.03414 38866 ft 465 kts 153°
2026-05-07 23:46 9.63925 -87.00503 38869 ft 465 kts 153°
2026-05-07 23:47 9.58144 -86.97587 38870 ft 465 kts 153°
2026-05-07 23:47 9.52347 -86.94664 38875 ft 466 kts 153°
2026-05-07 23:48 9.46567 -86.91752 38874 ft 463 kts 153°
2026-05-07 23:48 9.40780 -86.88836 38873 ft 462 kts 153°
2026-05-07 23:49 9.35024 -86.85937 38876 ft 461 kts 153°
2026-05-07 23:49 9.29293 -86.83051 38876 ft 461 kts 153°
2026-05-07 23:50 9.23534 -86.80153 38877 ft 461 kts 153°
2026-05-07 23:50 9.17814 -86.77275 38875 ft 461 kts 153°
2026-05-07 23:51 9.12060 -86.74382 38875 ft 461 kts 153°
2026-05-07 23:51 9.06296 -86.71484 38880 ft 462 kts 152°
2026-05-07 23:52 9.00513 -86.68579 38878 ft 466 kts 152°
2026-05-07 23:52 8.94692 -86.65654 38879 ft 468 kts 152°
2026-05-07 23:53 8.88865 -86.62728 38881 ft 468 kts 152°
2026-05-07 23:53 8.83039 -86.59804 38881 ft 468 kts 152°
2026-05-07 23:54 8.77203 -86.56875 38881 ft 468 kts 152°
2026-05-07 23:54 8.71406 -86.53967 38880 ft 467 kts 153°
2026-05-07 23:55 8.65587 -86.51049 38883 ft 467 kts 152°
2026-05-07 23:55 8.59754 -86.48125 38882 ft 467 kts 152°
2026-05-07 23:56 8.53918 -86.45201 38880 ft 468 kts 152°
2026-05-07 23:56 8.48096 -86.42285 38880 ft 468 kts 152°
2026-05-07 23:57 8.42259 -86.39361 38883 ft 468 kts 152°
2026-05-07 23:57 8.36451 -86.36454 38883 ft 468 kts 152°
2026-05-07 23:58 8.30597 -86.33525 38890 ft 468 kts 152°
2026-05-07 23:58 8.24778 -86.30613 38890 ft 470 kts 152°
2026-05-07 23:59 8.18907 -86.27677 38888 ft 470 kts 152°
2026-05-07 23:59 8.13073 -86.24761 38889 ft 470 kts 152°
2026-05-08 00:00 8.07192 -86.21822 38892 ft 470 kts 152°
2026-05-08 00:00 8.01335 -86.18895 38892 ft 470 kts 152°
2026-05-08 00:01 7.95496 -86.15980 38889 ft 469 kts 152°
2026-05-08 00:01 7.89643 -86.13057 38891 ft 469 kts 152°
2026-05-08 00:02 7.83808 -86.10145 38891 ft 469 kts 152°
2026-05-08 00:02 7.77978 -86.07236 38893 ft 469 kts 152°
2026-05-08 00:03 7.72130 -86.04319 38894 ft 469 kts 152°
2026-05-08 00:03 7.66287 -86.01405 38895 ft 469 kts 152°
2026-05-08 00:04 7.60449 -85.98494 38898 ft 469 kts 152°
2026-05-08 00:04 7.54592 -85.95575 38896 ft 469 kts 152°
2026-05-08 00:05 7.48727 -85.92653 38893 ft 471 kts 152°
2026-05-08 00:05 7.42867 -85.89735 38894 ft 471 kts 152°
2026-05-08 00:06 7.36981 -85.86804 38893 ft 471 kts 152°
2026-05-08 00:06 7.31117 -85.83885 38894 ft 471 kts 152°
2026-05-08 00:07 7.25250 -85.80966 38897 ft 471 kts 152°
2026-05-08 00:07 7.19405 -85.78058 38897 ft 471 kts 152°
2026-05-08 00:08 7.13501 -85.75122 38897 ft 471 kts 152°
2026-05-08 00:08 7.07640 -85.72208 38898 ft 471 kts 152°
2026-05-08 00:09 7.01787 -85.69299 38897 ft 471 kts 152°
2026-05-08 00:09 6.95893 -85.66370 38899 ft 471 kts 152°
2026-05-08 00:10 6.90051 -85.63468 38899 ft 471 kts 152°
2026-05-08 00:10 6.84158 -85.60542 38899 ft 471 kts 152°
2026-05-08 00:11 6.78454 -85.57710 38900 ft 471 kts 152°
2026-05-08 00:11 6.72497 -85.54753 38896 ft 472 kts 152°
2026-05-08 00:12 6.66583 -85.51818 38895 ft 472 kts 152°
2026-05-08 00:12 6.60722 -85.48911 38895 ft 471 kts 152°
2026-05-08 00:13 6.54849 -85.45998 38898 ft 471 kts 152°
2026-05-08 00:13 6.48960 -85.43079 38897 ft 472 kts 152°
2026-05-08 00:14 6.43069 -85.40158 38897 ft 471 kts 152°
2026-05-08 00:14 6.37179 -85.37239 38898 ft 472 kts 152°
2026-05-08 00:15 6.31312 -85.34333 38897 ft 472 kts 152°
2026-05-08 00:15 6.25396 -85.31403 38898 ft 472 kts 152°
2026-05-08 00:16 6.19541 -85.28503 38898 ft 472 kts 152°
2026-05-08 00:16 6.14614 -85.26064 38901 ft 472 kts 152°
2026-05-08 00:17 6.08720 -85.23147 38897 ft 472 kts 152°
2026-05-08 00:17 6.02824 -85.20229 38898 ft 472 kts 152°
2026-05-08 00:18 5.96932 -85.17315 38897 ft 472 kts 152°
2026-05-08 00:18 5.91052 -85.14407 38894 ft 472 kts 152°
2026-05-08 00:19 5.85171 -85.11498 38898 ft 472 kts 152°
2026-05-08 00:19 5.79283 -85.08588 38898 ft 472 kts 152°
2026-05-08 00:20 5.73398 -85.05679 38896 ft 472 kts 152°
2026-05-08 00:20 5.67502 -85.02766 38896 ft 472 kts 153°
2026-05-08 00:21 5.61580 -84.99840 38897 ft 473 kts 153°
2026-05-08 00:21 5.55682 -84.96927 38896 ft 473 kts 153°
2026-05-08 00:22 5.49802 -84.94023 38894 ft 473 kts 153°
2026-05-08 00:22 5.43901 -84.91111 38897 ft 473 kts 153°
2026-05-08 00:23 5.38002 -84.88199 38897 ft 473 kts 153°
2026-05-08 00:23 5.32096 -84.85285 38897 ft 473 kts 153°
2026-05-08 00:24 5.26188 -84.82369 38899 ft 474 kts 153°
2026-05-08 00:24 5.20319 -84.79475 38899 ft 475 kts 153°
2026-05-08 00:25 5.15320 -84.77009 38898 ft 475 kts 153°
2026-05-08 00:25 5.09394 -84.74088 38897 ft 474 kts 153°
2026-05-08 00:26 5.03472 -84.71169 38894 ft 474 kts 153°
2026-05-08 00:26 4.97556 -84.68253 38895 ft 474 kts 153°
2026-05-08 00:27 4.91644 -84.65339 38895 ft 475 kts 153°
2026-05-08 00:27 4.85679 -84.62400 38896 ft 477 kts 153°
2026-05-08 00:28 4.79718 -84.59464 38894 ft 477 kts 153°
2026-05-08 00:28 4.73765 -84.56533 38895 ft 477 kts 153°
2026-05-08 00:29 4.67805 -84.53598 38895 ft 477 kts 153°
2026-05-08 00:29 4.61845 -84.50664 38896 ft 477 kts 153°
2026-05-08 00:30 4.55888 -84.47732 38898 ft 477 kts 153°
2026-05-08 00:30 4.49918 -84.44794 38898 ft 478 kts 153°
2026-05-08 00:31 4.43956 -84.41861 38895 ft 478 kts 153°
2026-05-08 00:31 4.38007 -84.38935 38895 ft 478 kts 153°
2026-05-08 00:32 4.32041 -84.36000 38895 ft 478 kts 153°
2026-05-08 00:32 4.26084 -84.33071 38896 ft 478 kts 153°
2026-05-08 00:33 4.20097 -84.30128 38895 ft 478 kts 153°
2026-05-08 00:33 4.14132 -84.27196 38895 ft 478 kts 153°
2026-05-08 00:34 4.08177 -84.24268 38898 ft 479 kts 153°
2026-05-08 00:34 4.02212 -84.21337 38897 ft 478 kts 153°
2026-05-08 00:35 3.96202 -84.18384 38895 ft 478 kts 153°
2026-05-08 00:35 3.90217 -84.15444 38894 ft 480 kts 153°
2026-05-08 00:36 3.84261 -84.12519 38895 ft 479 kts 153°
2026-05-08 00:36 3.78263 -84.09573 38895 ft 478 kts 153°
2026-05-08 00:37 3.72301 -84.06646 38892 ft 478 kts 153°
2026-05-08 00:38 3.63338 -84.02246 38894 ft 478 kts 153°
2026-05-08 00:38 3.57390 -83.99326 38895 ft 478 kts 153°
2026-05-08 00:39 3.51420 -83.96397 38897 ft 478 kts 153°
2026-05-08 00:39 3.45415 -83.93450 38894 ft 478 kts 153°
2026-05-08 00:40 3.39456 -83.90526 38893 ft 478 kts 153°
2026-05-08 00:40 3.33470 -83.87590 38895 ft 478 kts 153°
2026-05-08 00:41 3.27539 -83.84681 38894 ft 478 kts 153°
2026-05-08 00:41 3.21572 -83.81754 38894 ft 478 kts 153°
2026-05-08 00:42 3.15580 -83.78816 38895 ft 478 kts 153°
2026-05-08 00:42 3.09626 -83.75897 38895 ft 478 kts 153°
2026-05-08 00:43 3.03678 -83.72981 38893 ft 478 kts 153°
2026-05-08 00:43 2.97724 -83.70063 38896 ft 476 kts 153°
2026-05-08 00:44 2.91753 -83.67136 38900 ft 476 kts 153°
2026-05-08 00:44 2.85822 -83.64230 38896 ft 476 kts 153°
2026-05-08 00:45 2.79868 -83.61312 38898 ft 476 kts 153°
2026-05-08 00:45 2.73952 -83.58414 38901 ft 476 kts 153°
2026-05-08 00:46 2.67992 -83.55494 38901 ft 476 kts 153°
2026-05-08 00:46 2.62041 -83.52579 38899 ft 476 kts 153°
2026-05-08 00:47 2.56096 -83.49668 38900 ft 477 kts 153°
2026-05-08 00:47 2.50113 -83.46738 38899 ft 477 kts 153°
2026-05-08 00:48 2.44155 -83.43820 38901 ft 477 kts 153°
2026-05-08 00:48 2.38189 -83.40899 38903 ft 477 kts 153°
2026-05-08 00:49 2.32231 -83.37982 38904 ft 477 kts 153°
2026-05-08 00:49 2.26284 -83.35071 38903 ft 478 kts 153°
2026-05-08 00:50 2.20326 -83.32155 38905 ft 478 kts 153°
2026-05-08 00:50 2.14359 -83.29234 38907 ft 478 kts 153°
2026-05-08 00:51 2.08392 -83.26313 38907 ft 478 kts 153°
2026-05-08 00:51 2.02433 -83.23397 38907 ft 477 kts 153°
2026-05-08 00:52 1.96439 -83.20464 38903 ft 477 kts 153°
2026-05-08 00:52 1.90480 -83.17549 38905 ft 477 kts 153°
2026-05-08 00:53 1.84519 -83.14633 38909 ft 478 kts 153°
2026-05-08 00:53 1.78547 -83.11711 38909 ft 479 kts 153°
2026-05-08 00:54 1.72542 -83.08774 38909 ft 479 kts 153°
2026-05-08 00:54 1.66559 -83.05847 38908 ft 479 kts 153°
2026-05-08 00:55 1.60568 -83.02917 38913 ft 479 kts 153°
2026-05-08 00:55 1.54608 -83.00002 38912 ft 479 kts 153°
2026-05-08 00:56 1.48604 -82.97066 38908 ft 479 kts 152°
2026-05-08 00:56 1.42698 -82.93997 38907 ft 478 kts 144°
2026-05-08 00:57 1.37573 -82.89764 38909 ft 476 kts 135°
2026-05-08 00:57 1.32779 -82.85211 38914 ft 476 kts 134°
2026-05-08 00:58 1.28075 -82.80620 38917 ft 476 kts 134°
2026-05-08 00:58 1.23312 -82.75990 38916 ft 476 kts 134°
2026-05-08 00:59 1.18572 -82.71411 38917 ft 475 kts 134°
2026-05-08 00:59 1.13800 -82.66812 38917 ft 475 kts 134°
2026-05-08 01:00 1.09034 -82.62220 38917 ft 475 kts 134°
2026-05-08 01:00 1.04282 -82.57641 38918 ft 475 kts 134°
2026-05-08 01:01 0.99543 -82.53074 38921 ft 475 kts 134°
2026-05-08 01:01 0.94758 -82.48463 38919 ft 475 kts 134°
2026-05-08 01:02 0.90039 -82.43915 38922 ft 475 kts 134°
2026-05-08 01:02 0.85257 -82.39308 38919 ft 475 kts 134°
2026-05-08 01:03 0.80524 -82.34746 38920 ft 475 kts 134°
2026-05-08 01:03 0.75774 -82.30169 38920 ft 475 kts 134°
2026-05-08 01:04 0.71031 -82.25600 38919 ft 475 kts 134°
2026-05-08 01:04 0.66253 -82.20996 38923 ft 475 kts 134°
2026-05-08 01:05 0.61502 -82.16419 38921 ft 475 kts 134°
2026-05-08 01:05 0.56755 -82.11846 38923 ft 475 kts 134°
2026-05-08 01:06 0.51996 -82.07260 38919 ft 475 kts 134°
2026-05-08 01:06 0.48057 -82.03466 38921 ft 475 kts 134°
2026-05-08 01:07 0.42500 -81.98112 38922 ft 475 kts 134°
2026-05-08 01:07 0.38542 -81.94299 38921 ft 475 kts 134°
2026-05-08 01:08 0.33776 -81.89708 38927 ft 475 kts 134°
2026-05-08 01:08 0.29029 -81.85134 38921 ft 475 kts 134°
2026-05-08 01:09 0.24284 -81.80564 38922 ft 475 kts 134°
2026-05-08 01:09 0.19512 -81.75967 38921 ft 475 kts 134°
2026-05-08 01:10 0.14771 -81.71400 38924 ft 475 kts 134°
2026-05-08 01:10 0.09994 -81.66799 38925 ft 475 kts 134°
2026-05-08 01:11 0.05244 -81.62222 38924 ft 475 kts 134°
2026-05-08 01:11 0.00508 -81.57660 38924 ft 474 kts 134°
2026-05-08 01:12 -0.04238 -81.53089 38924 ft 474 kts 134°
2026-05-08 01:12 -0.08981 -81.48520 38922 ft 474 kts 134°
2026-05-08 01:13 -0.13722 -81.43953 38920 ft 474 kts 134°
2026-05-08 01:13 -0.18480 -81.39370 38922 ft 474 kts 134°
2026-05-08 01:14 -0.23228 -81.34796 38926 ft 474 kts 134°
2026-05-08 01:14 -0.27993 -81.30205 38924 ft 474 kts 134°
2026-05-08 01:15 -0.32727 -81.25645 38920 ft 474 kts 134°
2026-05-08 01:15 -0.37461 -81.21085 38922 ft 473 kts 134°
2026-05-08 01:15 -0.39785 -81.18847 38916 ft 460 kts 134°
2026-05-08 01:16 -0.42060 -81.16659 38924 ft 448 kts 134°
2026-05-08 01:16 -0.46531 -81.12352 38586 ft 447 kts 134°
2026-05-08 01:16 -0.48775 -81.10188 37980 ft 447 kts 134°
2026-05-08 01:17 -0.51019 -81.08024 37372 ft 443 kts 134°
2026-05-08 01:17 -0.53203 -81.05919 36795 ft 437 kts 135°
2026-05-08 01:17 -0.55385 -81.03817 36233 ft 432 kts 135°
2026-05-08 01:17 -0.57538 -81.01743 35687 ft 426 kts 135°
2026-05-08 01:18 -0.59642 -80.99715 35151 ft 420 kts 135°
2026-05-08 01:18 -0.61727 -80.97705 34622 ft 415 kts 136°
2026-05-08 01:18 -0.63795 -80.95712 34108 ft 410 kts 136°
2026-05-08 01:18 -0.65837 -80.93744 33542 ft 404 kts 136°
2026-05-08 01:19 -0.67860 -80.91795 32965 ft 399 kts 136°
2026-05-08 01:19 -0.69851 -80.89909 32369 ft 394 kts 139°
2026-05-08 01:19 -0.71934 -80.88136 31805 ft 390 kts 141°
2026-05-08 01:19 -0.73995 -80.86443 31266 ft 385 kts 141°
2026-05-08 01:20 -0.76068 -80.84750 30726 ft 381 kts 141°
2026-05-08 01:20 -0.78113 -80.83078 30203 ft 377 kts 141°
2026-05-08 01:20 -0.80114 -80.81440 29645 ft 373 kts 141°
2026-05-08 01:20 -0.82115 -80.79800 29039 ft 369 kts 141°
2026-05-08 01:21 -0.84095 -80.78177 28441 ft 366 kts 141°
2026-05-08 01:21 -0.86035 -80.76586 27877 ft 362 kts 140°
2026-05-08 01:21 -0.87990 -80.74982 27302 ft 359 kts 140°
2026-05-08 01:21 -0.89895 -80.73419 26756 ft 356 kts 140°
2026-05-08 01:22 -0.91814 -80.71845 26213 ft 353 kts 140°
2026-05-08 01:22 -0.93690 -80.70305 25683 ft 350 kts 139°
2026-05-08 01:22 -0.95577 -80.68757 25158 ft 347 kts 139°
2026-05-08 01:22 -0.97441 -80.67227 24645 ft 345 kts 139°
2026-05-08 01:23 -0.99277 -80.65720 24144 ft 342 kts 139°
2026-05-08 01:23 -1.01104 -80.64220 23650 ft 339 kts 138°
2026-05-08 01:23 -1.02910 -80.62738 23107 ft 337 kts 138°
2026-05-08 01:23 -1.04715 -80.61257 22525 ft 334 kts 139°
2026-05-08 01:24 -1.06516 -80.59778 21959 ft 331 kts 139°
2026-05-08 01:24 -1.08283 -80.58327 21403 ft 329 kts 139°
2026-05-08 01:24 -1.10052 -80.56875 20848 ft 326 kts 139°
2026-05-08 01:24 -1.11806 -80.55435 20303 ft 324 kts 139°
2026-05-08 01:25 -1.13526 -80.54023 19775 ft 322 kts 140°
2026-05-08 01:25 -1.15253 -80.52605 19253 ft 320 kts 140°
2026-05-08 01:25 -1.16972 -80.51194 18739 ft 318 kts 140°
2026-05-08 01:25 -1.18675 -80.49796 18236 ft 316 kts 140°
2026-05-08 01:26 -1.20372 -80.48404 17659 ft 314 kts 140°
2026-05-08 01:26 -1.22071 -80.47029 17080 ft 313 kts 141°
2026-05-08 01:26 -1.23744 -80.45690 16531 ft 312 kts 141°
2026-05-08 01:26 -1.25452 -80.44324 15975 ft 313 kts 141°
2026-05-08 01:27 -1.27152 -80.42966 15428 ft 311 kts 141°
2026-05-08 01:27 -1.28840 -80.41618 14886 ft 309 kts 140°
2026-05-08 01:27 -1.30492 -80.40298 14371 ft 306 kts 140°
2026-05-08 01:27 -1.32153 -80.38971 13850 ft 304 kts 140°
2026-05-08 01:28 -1.33800 -80.37654 13286 ft 302 kts 140°
2026-05-08 01:28 -1.35435 -80.36347 12719 ft 300 kts 140°
2026-05-08 01:28 -1.37057 -80.35051 12147 ft 297 kts 140°
2026-05-08 01:28 -1.38646 -80.33781 11718 ft 291 kts 140°
2026-05-08 01:29 -1.40196 -80.32543 11475 ft 279 kts 140°
2026-05-08 01:29 -1.41692 -80.31348 11259 ft 268 kts 140°
2026-05-08 01:29 -1.43119 -80.30207 11033 ft 263 kts 140°
2026-05-08 01:29 -1.44552 -80.29061 10876 ft 263 kts 140°
2026-05-08 01:30 -1.45988 -80.27913 10879 ft 263 kts 140°
2026-05-08 01:30 -1.47424 -80.26765 10889 ft 263 kts 140°
2026-05-08 01:30 -1.48838 -80.25635 10898 ft 262 kts 140°
2026-05-08 01:30 -1.50257 -80.24500 10912 ft 260 kts 140°
2026-05-08 01:31 -1.51671 -80.23370 10874 ft 262 kts 140°
2026-05-08 01:31 -1.53107 -80.22222 10871 ft 262 kts 140°
2026-05-08 01:31 -1.54505 -80.21105 10868 ft 249 kts 140°
2026-05-08 01:31 -1.55808 -80.20058 10868 ft 240 kts 140°
2026-05-08 01:32 -1.57092 -80.19021 10871 ft 239 kts 140°
2026-05-08 01:32 -1.58403 -80.17962 10869 ft 238 kts 140°
2026-05-08 01:32 -1.59676 -80.16933 10861 ft 238 kts 140°
2026-05-08 01:32 -1.60976 -80.15882 10884 ft 239 kts 140°
2026-05-08 01:33 -1.62270 -80.14836 10882 ft 239 kts 140°
2026-05-08 01:33 -1.63567 -80.13788 10885 ft 239 kts 140°
2026-05-08 01:33 -1.64852 -80.12751 10882 ft 239 kts 140°
2026-05-08 01:33 -1.66150 -80.11702 10868 ft 239 kts 140°
2026-05-08 01:34 -1.67425 -80.10672 10678 ft 236 kts 140°
2026-05-08 01:34 -1.68690 -80.09651 10375 ft 230 kts 140°
2026-05-08 01:34 -1.69924 -80.08654 10078 ft 226 kts 140°
2026-05-08 01:34 -1.71142 -80.07669 9784 ft 224 kts 140°
2026-05-08 01:35 -1.72349 -80.06694 9469 ft 223 kts 140°
2026-05-08 01:35 -1.73532 -80.05738 9138 ft 218 kts 140°
2026-05-08 01:35 -1.74707 -80.04788 8819 ft 213 kts 140°
2026-05-08 01:35 -1.75845 -80.03869 8502 ft 210 kts 140°
2026-05-08 01:36 -1.76979 -80.02952 8184 ft 209 kts 140°
2026-05-08 01:36 -1.78100 -80.02046 7874 ft 208 kts 140°
2026-05-08 01:36 -1.79227 -80.01136 7586 ft 208 kts 140°
2026-05-08 01:36 -1.80352 -80.00226 7279 ft 207 kts 140°
2026-05-08 01:37 -1.81473 -79.99321 6961 ft 207 kts 140°
2026-05-08 01:37 -1.82592 -79.98417 6659 ft 206 kts 140°
2026-05-08 01:37 -1.83695 -79.97525 6369 ft 205 kts 140°
2026-05-08 01:37 -1.84806 -79.96627 6048 ft 205 kts 140°
2026-05-08 01:38 -1.85918 -79.95729 5737 ft 204 kts 141°
2026-05-08 01:38 -1.87025 -79.94834 5418 ft 204 kts 141°
2026-05-08 01:38 -1.88111 -79.93956 5108 ft 203 kts 141°
2026-05-08 01:38 -1.89207 -79.93071 4801 ft 201 kts 141°
2026-05-08 01:39 -1.90290 -79.92196 4494 ft 199 kts 141°
2026-05-08 01:39 -1.91362 -79.91329 4180 ft 197 kts 142°
2026-05-08 01:39 -1.92415 -79.90478 3994 ft 189 kts 142°
2026-05-08 01:39 -1.93411 -79.89673 3993 ft 186 kts 142°
2026-05-08 01:40 -1.94420 -79.88855 3992 ft 186 kts 141°
2026-05-08 01:40 -1.95341 -79.87941 3988 ft 187 kts 128°
2026-05-08 01:40 -1.96067 -79.86863 4001 ft 188 kts 122°
2026-05-08 01:40 -1.96730 -79.85739 3985 ft 184 kts 120°
2026-05-08 01:41 -1.97365 -79.84639 3738 ft 182 kts 121°
2026-05-08 01:41 -1.98000 -79.83539 3451 ft 181 kts 121°
2026-05-08 01:41 -1.98626 -79.82466 3244 ft 176 kts 122°
2026-05-08 01:41 -1.99382 -79.81512 3017 ft 174 kts 138°
2026-05-08 01:42 -2.00379 -79.80869 2746 ft 171 kts 160°
2026-05-08 01:42 -2.01535 -79.80660 2479 ft 168 kts 187°
2026-05-08 01:42 -2.02646 -79.80903 2255 ft 160 kts 201°
2026-05-08 01:42 -2.03640 -79.81380 2036 ft 160 kts 209°
2026-05-08 01:43 -2.04607 -79.81926 2002 ft 162 kts 210°
2026-05-08 01:43 -2.05585 -79.82494 2003 ft 163 kts 211°
2026-05-08 01:43 -2.06564 -79.83056 1871 ft 161 kts 210°
2026-05-08 01:43 -2.07539 -79.83611 1640 ft 160 kts 210°
2026-05-08 01:44 -2.08510 -79.84173 1406 ft 161 kts 210°
2026-05-08 01:44 -2.09482 -79.84735 1202 ft 162 kts 211°
2026-05-08 01:44 -2.10447 -79.85294 999 ft 162 kts 211°
2026-05-08 01:44 -2.11422 -79.85860 800 ft 162 kts 211°
2026-05-08 01:45 -2.12402 -79.86428 604 ft 163 kts 212°
2026-05-08 01:45 -2.13391 -79.87002 410 ft 164 kts 212°
2026-05-08 01:45 -2.14387 -79.87580 184 ft 164 kts 212°
2026-05-08 01:45 -2.15329 -79.88128 35 ft 150 kts 211°
2026-05-08 01:46 -2.16132 -79.88594 28 ft 109 kts 209°
2026-05-08 01:46 -2.16617 -79.88884 25 ft 44 kts 212°
2026-05-08 01:46 -2.16722 -79.88967 25 ft 12 kts 265°
2026-05-08 01:46 -2.16684 -79.89000 26 ft 5 kts 340°
2026-05-08 01:47 -2.16658 -79.89001 26 ft 7 kts 11°
2026-05-08 01:47 -2.16589 -79.88963 26 ft 16 kts 31°
2026-05-08 01:47 -2.16464 -79.88891 27 ft 25 kts 27°
2026-05-08 01:48 -2.16080 -79.88668 27 ft 38 kts 31°
2026-05-08 01:48 -2.15839 -79.88533 28 ft 43 kts 28°
2026-05-08 01:48 -2.15567 -79.88375 25 ft 47 kts 29°
2026-05-08 01:48 -2.15311 -79.88227 25 ft 20 kts 26°
2026-05-08 01:49 -2.15236 -79.88251 25 ft 14 kts 317°
2026-05-08 01:49 -2.15186 -79.88363 27 ft 22 kts 298°
2026-05-08 01:49 -2.15094 -79.88378 26 ft 18 kts 35°
2026-05-08 01:49 -2.14987 -79.88329 25 ft 11 kts 351°
2026-05-08 01:50 -2.14972 -79.88350 28 ft 7 kts 296°
2026-05-08 01:50 -2.14963 -79.88369 26 ft 0 kts 296°